Location: Casilda
(33.0440°S, 61.1680°W)
Time: 02:02:06
(UTC-03:00)

ISS - Visible Passes

Search period start: 25 September 2018 00:00
Search period end: 05 October 2018 00:00
Orbit: 403 x 408 km, 51.6° (Epoch: 25 September)

Date Brightness Start Highest point End Pass type
(mag) Time Alt. Az. Time Alt. Az. Time Alt. Az.
25 Sep -1.2 05:51:57 10° N 05:54:24 19° NE 05:56:51 10° E visible
27 Sep -3.3 05:44:33 16° NNW 05:46:58 59° NE 05:50:15 10° SE visible
28 Sep -1.9 04:55:16 26° NE 04:55:16 26° NE 04:58:02 10° ESE visible
29 Sep -3.3 05:38:31 30° W 05:39:40 44° SW 05:42:52 10° SSE visible
30 Sep -2.3 04:48:57 36° SE 04:48:57 36° SE 04:51:04 10° SE visible
01 Oct -2.0 05:31:57 18° SW 05:32:29 19° SW 05:34:57 10° SSE visible
02 Oct -1.4 04:42:09 20° SSE 04:42:09 20° SSE 04:43:29 10° SSE visible
04 Oct -0.8 04:35:00 11° S 04:35:00 11° S 04:35:19 10° S visible
